Change the Weather History Date:

Monday, February 11, 2013

  Actual Average Record
Temperature  
Mean Temperature 43 °F 28 °F  
Max Temperature 53 °F 36 °F 71 °F (1932)
Min Temperature 33 °F 21 °F -11 °F (1899)
Degree Days  
Heating Degree Days 22 37  
Month to date heating degree days 423 414  
Since 1 July heating degree days 3651 3950  
Cooling Degree Days 0 0  
Month to date cooling degree days 0 0  
Year to date cooling degree days 0 0  
Moisture  
Dew Point 35 °F    
Average Humidity 75    
Maximum Humidity 93    
Minimum Humidity 56    
Precipitation  
Precipitation T in 0.08 in 0.58 in (1956)
Month to date precipitation 0.48 0.90  
Year to date precipitation 2.64 3.51  
Snow  
Snow 0.00 in 0.40 in - ()
Month to date snowfall 5.4 4.1  
Since 1 July snowfall 30.6 30.1  
Snow Depth 0.00 in    
Sea Level Pressure  
Sea Level Pressure 29.79 in    
Wind  
Wind Speed 19 mph (WSW)    
Max Wind Speed 32 mph    
Max Gust Speed 40 mph    
Visibility 8 miles    
Events Rain    
T = Trace of Precipitation, MM = Missing Value Source: NWS Daily Summary

Daily Weather History Graph

Daily Weather History Graph

Search for Another Location

Airport or City:

Trip Planner

Search our weather history database for the weather conditions in past years. The results will help you decide how hot, cold, wet, or windy it might be!

Date:

Astronomy

Feb. 11, 2013 Rise Set
Actual Time 7:24 AM EST 5:55 PM EST
Civil Twilight 6:56 AM EST 6:24 PM EST
Nautical Twilight 6:24 AM EST 6:56 PM EST
Astronomical Twilight 5:52 AM EST 7:28 PM EST
Moon 7:47 AM EST (2/11) 7:52 PM EST (2/11)
Length of Visible Light 11h 27m
Length of Day
10h 30m
Waxing Crescent, 3% of the Moon is Illuminated
Feb 11
Waxing Crescent
Feb 17
First Quarter
Feb 25
Full
Mar 4
Last Quarter
Mar 11
New

Hourly Weather History & Observations

Time (EST) Temp. Windchill Dew Point Humidity Pressure Visibility Wind Dir Wind Speed Gust Speed Precip Events Conditions
12:51 AM 45.0 °F 36.4 °F 36.0 °F 71% 29.83 in 10.0 mi South 23.0 mph - N/A   Overcast
1:51 AM 44.1 °F 36.2 °F 37.9 °F 79% 29.82 in 10.0 mi SSW 18.4 mph 27.6 mph N/A   Overcast
2:51 AM 43.0 °F 36.4 °F 39.9 °F 89% 29.81 in 3.0 mi South 12.7 mph - 0.00 in Rain Light Rain
3:07 AM 42.8 °F 35.8 °F 39.2 °F 87% 29.79 in 4.0 mi South 13.8 mph - 0.00 in   Overcast
3:51 AM 42.1 °F 34.9 °F 39.9 °F 92% 29.79 in 4.0 mi South 13.8 mph - 0.00 in   Overcast
4:51 AM 44.1 °F 37.7 °F 42.1 °F 93% 29.78 in 4.0 mi South 12.7 mph - N/A   Overcast
5:51 AM 46.0 °F 39.0 °F 43.0 °F 89% 29.76 in 5.0 mi SSW 17.3 mph - N/A   Overcast
6:51 AM 46.9 °F - 44.1 °F 90% 29.75 in 8.0 mi SSW 19.6 mph 25.3 mph N/A   Overcast
7:51 AM 46.9 °F - 43.0 °F 86% 29.73 in 8.0 mi SSW 16.1 mph - N/A   Mostly Cloudy
8:51 AM 48.9 °F - 44.1 °F 83% 29.72 in 8.0 mi SSW 18.4 mph 26.5 mph N/A   Mostly Cloudy
9:15 AM 50.0 °F - 44.6 °F 82% 29.71 in 8.0 mi SW 17.3 mph 26.5 mph N/A   Mostly Cloudy
9:51 AM 50.0 °F - 44.1 °F 80% 29.70 in 10.0 mi SW 20.7 mph 28.8 mph N/A   Mostly Cloudy
10:51 AM 51.1 °F - 41.0 °F 68% 29.69 in 10.0 mi West 24.2 mph 32.2 mph 0.00 in Rain Light Rain
11:51 AM 51.1 °F - 36.0 °F 56% 29.70 in 10.0 mi West 18.4 mph 38.0 mph 0.00 in   Mostly Cloudy
12:51 PM 50.0 °F - 36.0 °F 59% 29.71 in 10.0 mi West 17.3 mph 26.5 mph N/A   Mostly Cloudy
1:51 PM 45.0 °F 36.2 °F 32.0 °F 60% 29.73 in 7.0 mi West 24.2 mph 32.2 mph N/A   Mostly Cloudy
2:51 PM 44.1 °F 35.9 °F 30.0 °F 58% 29.75 in 8.0 mi West 19.6 mph 29.9 mph N/A   Mostly Cloudy
3:51 PM 39.9 °F 29.2 °F 28.0 °F 63% 29.80 in 8.0 mi West 25.3 mph 34.5 mph N/A   Overcast
4:51 PM 37.9 °F 26.1 °F 24.1 °F 57% 29.83 in 9.0 mi West 27.6 mph 39.1 mph N/A   Overcast
5:51 PM 37.0 °F 26.2 °F 25.0 °F 62% 29.85 in 8.0 mi West 21.9 mph 31.1 mph N/A   Mostly Cloudy
6:51 PM 36.0 °F 28.0 °F 25.0 °F 64% 29.87 in 9.0 mi West 11.5 mph 27.6 mph N/A   Mostly Cloudy
7:51 PM 35.1 °F 23.8 °F 25.0 °F 67% 29.88 in 9.0 mi West 20.7 mph 27.6 mph N/A   Mostly Cloudy
8:51 PM 35.1 °F 24.5 °F 23.0 °F 61% 29.89 in 9.0 mi West 18.4 mph 25.3 mph N/A   Overcast
9:51 PM 35.1 °F 24.1 °F 23.0 °F 61% 29.90 in 9.0 mi West 19.6 mph 27.6 mph N/A   Overcast
10:51 PM 35.1 °F 24.8 °F 24.1 °F 64% 29.91 in 9.0 mi West 17.3 mph 28.8 mph N/A   Overcast
11:51 PM 34.0 °F 21.0 °F 21.9 °F 61% 29.92 in 10.0 mi West 26.5 mph 34.5 mph N/A   Overcast